Hourly Weather Sudovaya Vishnya

Today, 20 January, Wednesday

Time Temperature Precipitation Wind Pressure Humidity
00:00 -5°C° 0.3 mm 3 mps 737 mmHg 85%
01:00 -4°C° 0.3 mm 3 mps 737 mmHg 87%
02:00 -4°C° 0.3 mm 3 mps 736 mmHg 88%
03:00 -4°C° 0 mm 3 mps 736 mmHg 87%
04:00 -5°C° 0 mm 3 mps 736 mmHg 86%
05:00 -5°C° 0 mm 3 mps 736 mmHg 85%
06:00 -5°C° 0.1 mm 3 mps 736 mmHg 88%
07:00 -5°C° 0.1 mm 3 mps 736 mmHg 90%
08:00 -5°C° 0.1 mm 3 mps 736 mmHg 93%
09:00 -4°C° 0.3 mm 3 mps 736 mmHg 93%
10:00 -3°C° 0.3 mm 4 mps 737 mmHg 94%
11:00 -2°C° 0.3 mm 4 mps 737 mmHg 94%
12:00 -2°C° 0.1 mm 4 mps 737 mmHg 93%
13:00 -1°C° 0.1 mm 4 mps 737 mmHg 93%
14:00 0°C° 0.1 mm 3 mps 736 mmHg 92%
15:00 0°C° 0 mm 3 mps 736 mmHg 90%
16:00 0°C° 0 mm 3 mps 736 mmHg 88%
17:00 0°C° 0 mm 4 mps 737 mmHg 86%
18:00 0°C° 0 mm 4 mps 737 mmHg 85%
19:00 0°C° 0 mm 5 mps 737 mmHg 84%
20:00 0°C° 0 mm 5 mps 737 mmHg 83%
21:00 -1°C° 0 mm 6 mps 737 mmHg 83%
22:00 +1°C° 0 mm 6 mps 737 mmHg 83%
23:00 +1°C° 0 mm 6 mps 737 mmHg 83%

Tomorrow, 21 January, Thursday

Time Temperature Precipitation Wind Pressure Humidity
00:00 +1°C° 0 mm 6 mps 736 mmHg 83%
01:00 +1°C° 0 mm 6 mps 736 mmHg 82%
02:00 +1°C° 0 mm 6 mps 736 mmHg 82%
03:00 +1°C° 0 mm 6 mps 736 mmHg 82%
04:00 +1°C° 0 mm 5 mps 736 mmHg 81%
05:00 +1°C° 0 mm 5 mps 736 mmHg 81%
06:00 +1°C° 0 mm 5 mps 736 mmHg 81%
07:00 +1°C° 0 mm 5 mps 736 mmHg 80%
08:00 +1°C° 0 mm 5 mps 736 mmHg 80%
09:00 +1°C° 0 mm 4 mps 736 mmHg 83%
10:00 +1°C° 0 mm 4 mps 735 mmHg 86%
11:00 +3°C° 0 mm 4 mps 735 mmHg 89%
12:00 +3°C° 0 mm 4 mps 735 mmHg 90%
13:00 +3°C° 0 mm 4 mps 735 mmHg 90%
14:00 +3°C° 0 mm 4 mps 735 mmHg 90%
15:00 +3°C° 0 mm 4 mps 735 mmHg 88%
16:00 +1°C° 0 mm 4 mps 734 mmHg 85%
17:00 +1°C° 0 mm 4 mps 734 mmHg 82%
18:00 +1°C° 0 mm 4 mps 734 mmHg 83%
19:00 +1°C° 0 mm 4 mps 734 mmHg 84%
20:00 +1°C° 0 mm 4 mps 734 mmHg 84%
21:00 +1°C° 0 mm 4 mps 734 mmHg 85%
22:00 +1°C° 0 mm 4 mps 733 mmHg 85%
23:00 +1°C° 0 mm 5 mps 733 mmHg 86%

Day after tomorrow, 22 January, Friday

Time Temperature Precipitation Wind Pressure Humidity
00:00 +2°C° 0 mm 5 mps 733 mmHg 85%
01:00 +2°C° 0 mm 5 mps 733 mmHg 84%
02:00 +2°C° 0 mm 5 mps 732 mmHg 84%
03:00 +2°C° 0 mm 5 mps 732 mmHg 83%
04:00 +2°C° 0 mm 5 mps 732 mmHg 83%
05:00 +2°C° 0 mm 5 mps 731 mmHg 82%
06:00 +2°C° 0 mm 5 mps 731 mmHg 82%
07:00 +2°C° 0 mm 5 mps 731 mmHg 82%
08:00 +1°C° 0 mm 4 mps 731 mmHg 81%
09:00 +3°C° 0 mm 4 mps 730 mmHg 83%
10:00 +3°C° 0 mm 4 mps 730 mmHg 84%
11:00 +4°C° 0 mm 4 mps 730 mmHg 86%
12:00 +3°C° 0 mm 5 mps 730 mmHg 85%
13:00 +4°C° 0 mm 6 mps 729 mmHg 84%
14:00 +4°C° 0 mm 7 mps 729 mmHg 83%
15:00 +4°C° 0 mm 6 mps 729 mmHg 83%
16:00 +3°C° 0 mm 6 mps 729 mmHg 83%
17:00 +3°C° 0 mm 5 mps 729 mmHg 83%
18:00 +3°C° 0 mm 5 mps 729 mmHg 84%
19:00 +3°C° 0 mm 5 mps 729 mmHg 86%
20:00 +4°C° 0 mm 4 mps 729 mmHg 87%
21:00 +4°C° 0.1 mm 4 mps 729 mmHg 87%
22:00 +4°C° 0.1 mm 4 mps 729 mmHg 87%
23:00 +3°C° 0.1 mm 4 mps 729 mmHg 87%

23 January, Saturday

Time Temperature Precipitation Wind Pressure Humidity
00:00 +3°C° 0 mm 4 mps 729 mmHg 87%
01:00 +3°C° 0 mm 4 mps 729 mmHg 87%
02:00 +3°C° 0 mm 4 mps 729 mmHg 87%
03:00 +3°C° 0 mm 4 mps 729 mmHg 87%
04:00 +3°C° 0 mm 4 mps 728 mmHg 88%
05:00 +3°C° 0 mm 4 mps 728 mmHg 88%
06:00 +3°C° 0 mm 4 mps 728 mmHg 88%
07:00 +3°C° 0 mm 4 mps 728 mmHg 88%
08:00 +3°C° 0 mm 4 mps 728 mmHg 89%
09:00 +4°C° 0 mm 4 mps 728 mmHg 88%
10:00 +4°C° 0 mm 4 mps 728 mmHg 87%
11:00 +5°C° 0 mm 5 mps 728 mmHg 86%
12:00 +6°C° 0 mm 5 mps 727 mmHg 86%
13:00 +6°C° 0 mm 5 mps 727 mmHg 85%
14:00 +6°C° 0 mm 5 mps 726 mmHg 85%
15:00 +6°C° 0 mm 4 mps 726 mmHg 86%
16:00 +6°C° 0 mm 4 mps 725 mmHg 86%
17:00 +5°C° 0 mm 4 mps 724 mmHg 87%
18:00 +5°C° 0.1 mm 4 mps 724 mmHg 87%
19:00 +4°C° 0.1 mm 4 mps 724 mmHg 87%
20:00 +4°C° 0.1 mm 4 mps 724 mmHg 87%
21:00 +4°C° 0.1 mm 4 mps 723 mmHg 88%
22:00 +4°C° 0.1 mm 4 mps 723 mmHg 89%
23:00 +4°C° 0.1 mm 3 mps 722 mmHg 89%

24 January, Sunday

Time Temperature Precipitation Wind Pressure Humidity
00:00 +3°C° 0 mm 3 mps 722 mmHg 90%
01:00 +3°C° 0 mm 3 mps 722 mmHg 90%
02:00 +3°C° 0 mm 3 mps 722 mmHg 90%
03:00 +3°C° 0.1 mm 4 mps 722 mmHg 91%
04:00 +3°C° 0.1 mm 4 mps 722 mmHg 92%
05:00 +3°C° 0.1 mm 4 mps 722 mmHg 92%
06:00 +3°C° 0.2 mm 4 mps 723 mmHg 93%
07:00 +1°C° 0.2 mm 4 mps 723 mmHg 94%
08:00 0°C° 0.2 mm 4 mps 723 mmHg 96%
09:00 0°C° 0.1 mm 4 mps 724 mmHg 96%
10:00 -1°C° 0.1 mm 4 mps 724 mmHg 96%
11:00 -1°C° 0.1 mm 4 mps 724 mmHg 96%
12:00 -1°C° 0.1 mm 4 mps 725 mmHg 95%
13:00 -1°C° 0.1 mm 4 mps 725 mmHg 94%
14:00 -1°C° 0.1 mm 4 mps 725 mmHg 93%
15:00 -1°C° 0.1 mm 4 mps 726 mmHg 94%
16:00 0°C° 0.1 mm 3 mps 727 mmHg 95%
17:00 0°C° 0.1 mm 3 mps 727 mmHg 96%
18:00 0°C° 0 mm 3 mps 728 mmHg 94%
19:00 0°C° 0 mm 3 mps 728 mmHg 93%
20:00 +1°C° 0 mm 2 mps 729 mmHg 92%
21:00 -1°C° 0 mm 2 mps 729 mmHg 91%
22:00 -1°C° 0 mm 2 mps 729 mmHg 91%
23:00 -2°C° 0 mm 2 mps 729 mmHg 90%

25 January, Monday

Time Temperature Precipitation Wind Pressure Humidity
00:00 0°C° 0 mm 1 mps 729 mmHg 89%
01:00 0°C° 0 mm 1 mps 729 mmHg 88%
02:00 0°C° 0 mm 1 mps 729 mmHg 87%
03:00 0°C° 0 mm 1 mps 729 mmHg 87%
04:00 -2°C° 0 mm 2 mps 729 mmHg 87%
05:00 -2°C° 0 mm 2 mps 729 mmHg 87%
06:00 -2°C° 0 mm 2 mps 729 mmHg 88%
07:00 -2°C° 0 mm 2 mps 729 mmHg 89%
08:00 -2°C° 0 mm 2 mps 729 mmHg 90%
09:00 -1°C° 0 mm 2 mps 729 mmHg 88%
10:00 -1°C° 0 mm 2 mps 728 mmHg 86%
11:00 0°C° 0 mm 3 mps 728 mmHg 84%
12:00 0°C° 0.7 mm 3 mps 728 mmHg 88%
13:00 -1°C° 0.7 mm 3 mps 727 mmHg 92%
14:00 -2°C° 0.7 mm 4 mps 727 mmHg 96%
15:00 -2°C° 0.9 mm 4 mps 727 mmHg 96%
16:00 -2°C° 0.9 mm 4 mps 727 mmHg 97%
17:00 -2°C° 0.9 mm 4 mps 727 mmHg 97%
18:00 -2°C° 0.7 mm 5 mps 727 mmHg 97%
19:00 -2°C° 0.7 mm 5 mps 727 mmHg 97%
20:00 -2°C° 0.7 mm 5 mps 727 mmHg 97%
21:00 -2°C° 0.6 mm 5 mps 727 mmHg 97%
22:00 -4°C° 0.6 mm 5 mps 727 mmHg 97%
23:00 -4°C° 0.6 mm 6 mps 727 mmHg 97%
Show more